Regional Weather Roundup
Issued by NWS Goodland, KS

Home | Current Version | Previous Version | Graphics & Text | Print | Product List | Glossary On
Versions: 1 2 3 4 5 6 7 8 9 10 11 12 13 14 15 16 17 18 19 20 21 22 23 24 25 26 27 28 29 30 31 32 33 34 35 36 37 38 39 40 41 42 43 44 45 46 47 48 49 50
000
ASUS43 KGLD 171859
RWRGLD

GOODLAND FORECAST AREA HOURLY WEATHER ROUNDUP
NATIONAL WEATHER SERVICE GOODLAND KS
1200 PM MST FRI NOV 17 2017

...OFFICIAL OBSERVATIONS...

CITY           SKY/WX    TMP DP  RH WIND       PRES   REMARKS
GOODLAND KS    SUNNY     74  32  21 W12       29.55F
HILL CITY KS   CLOUDY    70  40  33 NE7       29.51F
IMPERIAL NEB   NOT AVBL
MCCOOK NEB     SUNNY     62  36  37 N8        29.55F
AKRON CO       SUNNY     60  31  33 NE8       29.60F
BURLINGTON CO  SUNNY     73  34  23 SW9       29.58F
LIMON CO       SUNNY     70  30  22 SW25G35   29.61F
$$

...UNOFFICIAL OBSERVATIONS...

CITY           SKY/WX    TMP DP  RH WIND       PRES   REMARKS
LENORA KS        N/A     68  32  26 CALM        N/A
NORTON KS      SUNNY     64  36  34 NE3       29.53
SHARON SPRINGS   N/A     73  38  28 SW16G26     N/A
TRENTON NEB      N/A     56  32  40 N9          N/A
KIT CARSON CO    N/A     73  37  26 MISG        N/A
YUMA CO        FAIR      52  32  46 N10       29.60F
$$




USA.gov is the U.S. government's official web portal to all federal, state and local government web resources and services.